This demonstration page uses our WeatherBlox Daily Observations layout. Learn more.

Left ArrowRight Arrow

38.89511, -77.03637

Hourly Observations for September 26, 2018

Temp ( °F °C ) Dew Point ( °F °C ) Humidity (%) Winds ( mph kmh ) Pressure ( in mb ) Visibility ( mi km ) Precip ( " mm )
12:35 am 00:35 Mostly Cloudy 72 22.2 70 21.1 94 94 S 7 11 30.09 1019 9 14 N/A
12:52 am 00:52 Mostly Cloudy 73 22.8 70 21.1 90 90 S 8 13 30.08 1019 9 14 N/A
1:52 am 01:52 Cloudy 73 22.8 70 21.1 90 90 S 7 11 30.08 1019 10 16 N/A
2:52 am 02:52 Cloudy with Mist and Fog 73 22.8 70 21.1 90 90 S 9 15 30.07 1018 6 10 N/A
2:58 am 02:58 Cloudy with Mist and Fog 73 22.8 71 21.7 94 94 S 8 13 30.06 1018 1 2 N/A
3:01 am 03:01 Cloudy with Mist and Fog 73 22.8 71 21.7 94 94 S 7 11 30.06 1018 1 1 N/A
3:03 am 03:03 Mostly Cloudy with Fog 73 22.8 71 21.7 94 94 S 6 9 30.06 1018 0 0 N/A
3:07 am 03:07 Mostly Cloudy with Fog 73 22.8 71 21.7 94 94 S 7 11 30.06 1018 1 2 N/A
3:24 am 03:24 Mostly Cloudy with Fog 72 22.2 70 21.1 94 94 S 6 9 30.06 1018 1 2 N/A
3:29 am 03:29 Mostly Cloudy with Fog 72 22.2 71 21.7 97 97 S 6 9 30.06 1018 1 2 N/A
3:42 am 03:42 Mostly Cloudy with Fog 73 22.8 71 21.7 94 94 S 6 9 30.06 1018 1 1 N/A
3:52 am 03:52 Cloudy with Mist and Fog 73 22.8 72 22.2 96 96 SSW 5 7 30.05 1018 1 1 N/A
3:56 am 03:56 Cloudy with Mist and Fog 73 22.8 72 22.2 96 96 S 5 7 30.06 1018 2 2 N/A
4:03 am 04:03 Cloudy with Mist and Fog 73 22.8 71 21.7 94 94 SSW 5 7 30.06 1018 2 3 N/A
4:05 am 04:05 Cloudy with Mist and Fog 73 22.8 71 21.7 94 94 SSW 5 7 30.06 1018 3 5 N/A
4:52 am 04:52 Cloudy with Mist and Fog 72 22.2 70 21.1 94 94 SSE 7 11 30.03 1017 5 8 N/A
5:34 am 05:34 Cloudy with Mist and Fog 72 22.2 70 21.1 94 94 S 8 13 30.03 1017 6 10 N/A
5:52 am 05:52 Cloudy 72 22.2 70 21.1 94 94 S 9 15 30.02 1017 7 11 N/A
6:52 am 06:52 Cloudy 73 22.8 70 21.1 90 90 S 9 15 30.01 1016 10 16 N/A
7:22 am 07:22 Cloudy 73 22.8 70 21.1 90 90 S 8 13 30.03 1017 10 16 N/A
7:52 am 07:52 Cloudy 73 22.8 70 21.1 90 90 S 8 13 30.02 1017 10 16 N/A
8:01 am 08:01 Cloudy 73 22.8 70 21.1 90 90 S 7 11 30.03 1017 10 16 N/A
8:52 am 08:52 Mostly Cloudy 74 23.3 70 21.1 88 88 S 10 17 30.02 1017 10 16 N/A
9:20 am 09:20 Partly Cloudy 75 23.9 71 21.7 88 88 S 8 13 30.03 1017 10 16 N/A
9:52 am 09:52 Partly Cloudy 76 24.4 71 21.7 85 85 S 9 15 30.02 1017 10 16 N/A
10:52 am 10:52 Partly Cloudy 78 25.6 71 21.7 79 79 S 12 19 30.01 1016 10 16 N/A
11:52 am 11:52 Partly Cloudy 82 27.8 71 21.7 69 69 SSW 13 20 29.98 1015 10 16 N/A
12:52 pm 12:52 Partly Cloudy 82 27.8 71 21.7 69 69 S 15 24 29.96 1015 10 16 N/A
1:52 pm 13:52 Partly Cloudy 82 27.8 71 21.7 69 69 S 13 20 29.93 1014 10 16 N/A
2:52 pm 14:52 Partly Cloudy 85 29.4 71 21.7 63 63 S 10 17 29.92 1013 10 16 N/A
3:52 pm 15:52 Mostly Cloudy 86 30 71 21.7 61 61 S 12 19 29.90 1013 10 16 N/A
4:52 pm 16:52 Partly Cloudy 84 28.9 71 21.7 65 65 S 12 19 29.88 1012 10 16 N/A
5:52 pm 17:52 Mostly Cloudy 84 28.9 71 21.7 65 65 SW 10 17 29.88 1012 10 16 N/A
6:53 pm 18:53 Mostly Cloudy with Heavy Rain 80 26.7 72 22.2 76 76 W 21 33 29.91 1013 2 3 0.02 0.51
7:02 pm 19:02 Cloudy with Rain 77 25 71 21.7 82 82 WSW 13 20 29.91 1013 4 6 0.10 2.54
7:08 pm 19:08 Cloudy with Thunderstorms 76 24.4 71 21.7 85 85 WSW 15 24 29.94 1014 7 11 0.11 2.79
7:35 pm 19:35 Cloudy with Light Rain 76 24.4 71 21.7 85 85 WNW 5 7 29.94 1014 10 16 0.13 3.30
7:52 pm 19:52 Cloudy with Light Rain 76 24.4 71 21.7 85 85 W 7 11 29.96 1015 10 16 0.13 3.30
8:10 pm 20:10 Mostly Cloudy with Nearby Thunderstorms 75 23.9 71 21.7 88 88 SW 7 11 29.97 1015 10 16 0.02 0.51
8:49 pm 20:49 Cloudy with Thunderstorms 73 23 70 21 89 89 N N/A 29.97 1015 10 16 0.06 1.52
8:52 pm 20:52 Cloudy with Thunderstorms 74 23.3 70 21.1 88 88 WNW 5 7 29.98 1015 10 16 0.06 1.52
9:02 pm 21:02 Cloudy 75 23.9 69 20.6 82 82 NW 7 11 29.97 1015 10 16 N/A
9:52 pm 21:52 Mostly Cloudy 74 23.3 70 21.1 88 88 W 6 9 29.98 1015 10 16 N/A
10:52 pm 22:52 Mostly Cloudy 76 24.4 70 21.1 82 82 NW 7 11 30.01 1016 10 16 N/A
11:52 pm 23:52 Cloudy 74 23.3 69 20.6 85 85 NNW 7 11 30.02 1017 10 16 N/A

Powered by AerisWeather